Location: M�nchen
(48.1404°N, 11.6043°E)
Time: 03:55:54
(UTC+01:00)

OTV 5 (USA 277) - Visible Passes

Search period start: 18 November 2017 00:00
Search period end: 28 November 2017 00:00
Orbit: 404 x 417 km, 43.0° (Epoch: 07 September)

Date Brightness Start Highest point End Pass type
(mag) Time Alt. Az. Time Alt. Az. Time Alt. Az.
18 Nov ? 04:53:27 19° SE 04:53:27 19° SE 04:54:43 10° SE visible
18 Nov ? 06:26:59 10° SW 06:28:30 13° SSW 06:29:59 10° S visible
19 Nov ? 05:37:38 16° SSW 05:37:38 16° SSW 05:39:47 10° SSE visible
20 Nov ? 04:49:06 11° SSE 04:49:06 11° SSE 04:49:16 10° SSE visible
